This demonstration page uses our WeatherBlox Daily Observations layout. Learn more.

Left ArrowRight Arrow

Hourly Observations for October 21, 2015

Temp ( °F °C ) Dew Point ( °F °C ) Humidity (%) Winds ( mph kmh ) Pressure ( in mb ) Visibility ( mi km ) Precip ( " mm )
12:15 am 00:15 Clear 48 9 45 7 87 87 N N/A 30.33 1027 10 16 N/A
12:35 am 00:35 Clear 50 10 46 8 88 88 N N/A 30.33 1027 10 16 N/A
12:55 am 00:55 Clear 46 8 45 7 93 93 N N/A 30.33 1027 10 16 N/A
1:15 am 01:15 Clear 46 8 45 7 93 93 N N/A 30.30 1026 10 16 N/A
1:35 am 01:35 Clear 45 7 45 7 100 100 N N/A 30.30 1026 10 16 N/A
1:55 am 01:55 Clear 45 7 45 7 100 100 N N/A 30.30 1026 10 16 N/A
2:15 am 02:15 Clear 46 8 45 7 93 93 N N/A 30.33 1027 10 16 N/A
2:35 am 02:35 Clear 45 7 43 6 93 93 N N/A 30.33 1027 10 16 N/A
2:55 am 02:55 Clear 45 7 43 6 93 93 N N/A 30.33 1027 10 16 N/A
3:15 am 03:15 Clear 45 7 45 7 100 100 N N/A 30.33 1027 10 16 N/A
3:35 am 03:35 Clear 45 7 45 7 100 100 N N/A 30.33 1027 10 16 N/A
3:55 am 03:55 Clear 43 6 43 6 100 100 N N/A 30.33 1027 10 16 N/A
4:15 am 04:15 Clear 43 6 43 6 100 100 N N/A 30.33 1027 10 16 N/A
4:35 am 04:35 Clear 43 6 43 6 100 100 N N/A 30.33 1027 10 16 N/A
4:55 am 04:55 Clear 43 6 43 6 100 100 N N/A 30.33 1027 10 16 N/A
5:15 am 05:15 Clear 43 6 43 6 100 100 N N/A 30.33 1027 10 16 N/A
5:35 am 05:35 Clear 43 6 43 6 100 100 N N/A 30.33 1027 10 16 N/A
5:55 am 05:55 Clear 41 5 41 5 100 100 N N/A 30.36 1028 10 16 N/A
6:15 am 06:15 Clear 43 6 43 6 100 100 N N/A 30.36 1028 10 16 N/A
6:35 am 06:35 Clear 41 5 41 5 100 100 N N/A 30.36 1028 10 16 N/A
6:55 am 06:55 Clear 43 6 43 6 100 100 N N/A 30.36 1028 10 16 N/A
7:15 am 07:15 Clear 43 6 43 6 100 100 N N/A 30.36 1028 10 16 N/A
7:35 am 07:35 Sunny 41 5 41 5 100 100 N N/A 30.36 1028 10 16 N/A
7:55 am 07:55 Sunny 43 6 43 6 100 100 N N/A 30.36 1028 10 16 N/A
8:15 am 08:15 Sunny 43 6 43 6 100 100 N N/A 30.36 1028 10 16 N/A
8:35 am 08:35 Sunny 45 7 45 7 100 100 N N/A 30.39 1029 10 16 N/A
8:55 am 08:55 Sunny 48 9 46 8 94 94 N N/A 30.39 1029 10 16 N/A
9:15 am 09:15 Sunny 52 11 50 10 94 94 N N/A 30.39 1029 10 16 N/A
9:35 am 09:35 Sunny 55 13 50 10 82 82 N N/A 30.36 1028 10 16 N/A
9:55 am 09:55 Sunny 59 15 50 10 72 72 N N/A 30.36 1028 10 16 N/A
10:15 am 10:15 Sunny 61 16 52 11 72 72 ESE 3 6 30.36 1028 10 16 N/A
10:35 am 10:35 Sunny 63 17 52 11 68 68 N N/A 30.36 1028 10 16 N/A
10:55 am 10:55 Sunny 64 18 52 11 64 64 N N/A 30.36 1028 10 16 N/A
11:15 am 11:15 Sunny 68 20 50 10 53 53 N N/A 30.36 1028 10 16 N/A
11:35 am 11:35 Sunny 70 21 48 9 46 46 N N/A 30.36 1028 10 16 N/A
11:55 am 11:55 Sunny 72 22 46 8 41 41 NNW 3 6 30.36 1028 10 16 N/A
12:15 pm 12:15 Sunny 72 22 46 8 41 41 NW 5 7 30.33 1027 10 16 N/A
12:35 pm 12:35 Sunny 73 23 46 8 38 38 NNW 6 9 30.33 1027 10 16 N/A
12:55 pm 12:55 Sunny 72 22 46 8 41 41 NNW 3 6 30.33 1027 10 16 N/A
1:15 pm 13:15 Sunny 73 23 45 7 36 36 NW 3 6 30.33 1027 10 16 N/A
1:35 pm 13:35 Sunny 73 23 46 8 38 38 N N/A 30.30 1026 10 16 N/A
1:55 pm 13:55 Sunny 75 24 46 8 36 36 NW 3 6 30.30 1026 10 16 N/A
2:15 pm 14:15 Sunny 77 25 46 8 34 34 WSW 3 6 30.30 1026 10 16 N/A
2:35 pm 14:35 Sunny 77 25 46 8 34 34 WNW 3 6 30.30 1026 10 16 N/A
2:55 pm 14:55 Sunny 77 25 46 8 34 34 S 3 6 30.30 1026 10 16 N/A
3:15 pm 15:15 Sunny 77 25 46 8 34 34 WNW 5 7 30.27 1025 10 16 N/A
3:35 pm 15:35 Sunny 77 25 46 8 34 34 WSW 6 9 30.27 1025 10 16 N/A
3:55 pm 15:55 Sunny 77 25 46 8 34 34 N N/A 30.27 1025 10 16 N/A
4:15 pm 16:15 Sunny 77 25 46 8 34 34 S 5 7 30.27 1025 10 16 N/A
4:35 pm 16:35 Sunny 75 24 46 8 36 36 N N/A 30.27 1025 10 16 N/A
4:55 pm 16:55 Sunny 75 24 46 8 36 36 S 3 6 30.27 1025 10 16 N/A
5:15 pm 17:15 Sunny 75 24 45 7 34 34 S 6 9 30.27 1025 10 16 N/A
5:35 pm 17:35 Sunny 75 24 46 8 36 36 S 3 6 30.27 1025 10 16 N/A
5:55 pm 17:55 Sunny 73 23 46 8 38 38 N N/A 30.27 1025 10 16 N/A
6:15 pm 18:15 Sunny 72 22 46 8 41 41 S 6 9 30.27 1025 10 16 N/A
6:35 pm 18:35 Clear 68 20 48 9 49 49 N N/A 30.27 1025 10 16 N/A
6:55 pm 18:55 Clear 66 19 50 10 56 56 S 6 9 30.27 1025 10 16 N/A
7:15 pm 19:15 Clear 68 20 50 10 53 53 S 5 7 30.27 1025 10 16 N/A
7:35 pm 19:35 Clear 61 16 50 10 68 68 S 3 6 30.30 1026 10 16 N/A
7:55 pm 19:55 Clear 63 17 50 10 64 64 SSW 3 6 30.30 1026 10 16 N/A
8:15 pm 20:15 Clear 61 16 50 10 68 68 SSW 3 6 30.30 1026 10 16 N/A
8:35 pm 20:35 Clear 59 15 52 11 77 77 SSW 5 7 30.30 1026 10 16 N/A
8:55 pm 20:55 Clear 57 14 50 10 77 77 SSW 6 9 30.30 1026 10 16 N/A
9:15 pm 21:15 Clear 59 15 50 10 72 72 S 6 9 30.30 1026 10 16 N/A
9:35 pm 21:35 Clear 55 13 50 10 82 82 S 5 7 30.30 1026 10 16 N/A
9:55 pm 21:55 Clear 54 12 50 10 88 88 S 5 7 30.33 1027 10 16 N/A
10:15 pm 22:15 Clear 54 12 52 11 94 94 SSW 7 11 30.30 1026 10 16 N/A
10:35 pm 22:35 Clear 54 12 50 10 88 88 SSW 7 11 30.30 1026 10 16 N/A
10:55 pm 22:55 Clear 54 12 52 11 94 94 SW 3 6 30.30 1026 10 16 N/A
11:15 pm 23:15 Clear 54 12 52 11 94 94 N N/A 30.30 1026 10 16 N/A
11:35 pm 23:35 Clear 54 12 50 10 88 88 SW 7 11 30.30 1026 10 16 N/A
11:55 pm 23:55 Clear 52 11 50 10 94 94 SW 10 17 30.30 1026 10 16 N/A

Powered by AerisWeather